• In Hungary
  • List of Countries
  • For 7 days
  • Water Temperature
  • Satellite Maps
  • Weather Map
  • News
  • Weather Widgets
  • user-avatar
    Login

    Hourly Weather Tskhaltubo

    Today, 21 September, Friday

    Time Temperature Precipitation Wind Pressure Humidity
    00:00 +19°C° 0 mm 2 mps 746 mmHg 77%
    01:00 +19°C° 0 mm 2 mps 746 mmHg 76%
    02:00 +19°C° 0 mm 2 mps 746 mmHg 75%
    03:00 +18°C° 0 mm 2 mps 746 mmHg 74%
    04:00 +18°C° 0 mm 2 mps 746 mmHg 73%
    05:00 +18°C° 0 mm 2 mps 746 mmHg 73%
    06:00 +18°C° 0 mm 2 mps 746 mmHg 72%
    07:00 +21°C° 0 mm 2 mps 745 mmHg 66%
    08:00 +24°C° 0 mm 2 mps 745 mmHg 59%
    09:00 +26°C° 0 mm 1 mps 745 mmHg 53%
    10:00 +28°C° 0 mm 1 mps 745 mmHg 49%
    11:00 +29°C° 0 mm 2 mps 745 mmHg 46%
    12:00 +31°C° 0 mm 2 mps 745 mmHg 42%
    13:00 +30°C° 0 mm 2 mps 745 mmHg 43%
    14:00 +30°C° 0 mm 2 mps 744 mmHg 45%
    15:00 +30°C° 0 mm 2 mps 744 mmHg 46%
    16:00 +28°C° 0 mm 1 mps 744 mmHg 58%
    17:00 +25°C° 0 mm 1 mps 744 mmHg 69%
    18:00 +21°C° 0 mm 0 mps 744 mmHg 80%
    19:00 +22°C° 0 mm 1 mps 745 mmHg 80%
    20:00 +22°C° 0 mm 1 mps 745 mmHg 80%
    21:00 +22°C° 0 mm 1 mps 745 mmHg 80%
    22:00 +21°C° 0 mm 1 mps 746 mmHg 79%
    23:00 +21°C° 0 mm 1 mps 746 mmHg 78%

    Tomorrow, 22 September, Saturday

    Time Temperature Precipitation Wind Pressure Humidity
    00:00 +21°C° 0 mm 1 mps 746 mmHg 76%
    01:00 +20°C° 0 mm 2 mps 746 mmHg 75%
    02:00 +20°C° 0 mm 2 mps 746 mmHg 74%
    03:00 +19°C° 0 mm 2 mps 746 mmHg 73%
    04:00 +19°C° 0 mm 2 mps 746 mmHg 71%
    05:00 +19°C° 0 mm 2 mps 746 mmHg 70%
    06:00 +19°C° 0 mm 2 mps 746 mmHg 69%
    07:00 +21°C° 0 mm 2 mps 746 mmHg 63%
    08:00 +24°C° 0 mm 1 mps 746 mmHg 58%
    09:00 +26°C° 0 mm 1 mps 746 mmHg 52%
    10:00 +27°C° 0 mm 1 mps 745 mmHg 49%
    11:00 +29°C° 0 mm 1 mps 745 mmHg 46%
    12:00 +30°C° 0 mm 2 mps 745 mmHg 43%
    13:00 +30°C° 0 mm 2 mps 745 mmHg 45%
    14:00 +29°C° 0 mm 2 mps 745 mmHg 48%
    15:00 +29°C° 0 mm 2 mps 744 mmHg 50%
    16:00 +27°C° 0.1 mm 1 mps 744 mmHg 60%
    17:00 +25°C° 0.1 mm 1 mps 744 mmHg 70%
    18:00 +21°C° 0.1 mm 0 mps 744 mmHg 80%
    19:00 +22°C° 0.1 mm 1 mps 745 mmHg 81%
    20:00 +22°C° 0.1 mm 1 mps 745 mmHg 82%
    21:00 +21°C° 0.1 mm 1 mps 745 mmHg 82%
    22:00 +21°C° 0 mm 1 mps 745 mmHg 82%
    23:00 +20°C° 0 mm 1 mps 745 mmHg 81%

    Day after tomorrow, 23 September, Sunday

    Time Temperature Precipitation Wind Pressure Humidity
    00:00 +20°C° 0 mm 1 mps 745 mmHg 81%
    01:00 +20°C° 0 mm 1 mps 745 mmHg 80%
    02:00 +20°C° 0 mm 1 mps 745 mmHg 79%
    03:00 +19°C° 0 mm 1 mps 745 mmHg 78%
    04:00 +19°C° 0 mm 1 mps 745 mmHg 77%
    05:00 +18°C° 0 mm 2 mps 745 mmHg 75%
    06:00 +18°C° 0 mm 2 mps 745 mmHg 74%
    07:00 +21°C° 0.1 mm 1 mps 745 mmHg 68%
    08:00 +24°C° 0.1 mm 1 mps 745 mmHg 61%
    09:00 +26°C° 0.1 mm 1 mps 745 mmHg 55%
    10:00 +27°C° 0 mm 1 mps 745 mmHg 53%
    11:00 +27°C° 0 mm 2 mps 745 mmHg 52%
    12:00 +28°C° 0 mm 2 mps 745 mmHg 50%
    13:00 +28°C° 0.2 mm 3 mps 745 mmHg 53%
    14:00 +27°C° 0.2 mm 3 mps 745 mmHg 57%
    15:00 +27°C° 0.2 mm 3 mps 744 mmHg 60%
    16:00 +25°C° 0.9 mm 3 mps 745 mmHg 70%
    17:00 +23°C° 0.9 mm 2 mps 745 mmHg 80%
    18:00 +20°C° 0.9 mm 2 mps 745 mmHg 90%
    19:00 +21°C° 0.5 mm 1 mps 745 mmHg 92%
    20:00 +20°C° 0.5 mm 1 mps 746 mmHg 94%
    21:00 +20°C° 0.5 mm 1 mps 746 mmHg 95%
    22:00 +20°C° 0.6 mm 1 mps 746 mmHg 94%
    23:00 +19°C° 0.6 mm 1 mps 746 mmHg 93%

    24 September, Monday

    Time Temperature Precipitation Wind Pressure Humidity
    00:00 +19°C° 0.6 mm 1 mps 746 mmHg 92%
    01:00 +19°C° 1.5 mm 1 mps 746 mmHg 91%
    02:00 +19°C° 1.5 mm 1 mps 746 mmHg 90%
    03:00 +19°C° 1.5 mm 1 mps 746 mmHg 88%
    04:00 +19°C° 1.6 mm 1 mps 746 mmHg 88%
    05:00 +18°C° 1.6 mm 1 mps 746 mmHg 88%
    06:00 +18°C° 1.6 mm 1 mps 746 mmHg 87%
    07:00 +19°C° 1.3 mm 1 mps 746 mmHg 86%
    08:00 +19°C° 1.3 mm 1 mps 746 mmHg 85%
    09:00 +20°C° 1.3 mm 1 mps 746 mmHg 83%
    10:00 +20°C° 0.9 mm 1 mps 746 mmHg 83%
    11:00 +19°C° 0.9 mm 2 mps 746 mmHg 82%
    12:00 +20°C° 0.9 mm 2 mps 746 mmHg 81%
    13:00 +20°C° 0.5 mm 2 mps 746 mmHg 81%
    14:00 +20°C° 0.5 mm 2 mps 746 mmHg 80%
    15:00 +21°C° 0.5 mm 3 mps 746 mmHg 80%
    16:00 +20°C° 0.1 mm 2 mps 746 mmHg 84%
    17:00 +20°C° 0.1 mm 1 mps 745 mmHg 87%
    18:00 +19°C° 0.1 mm 1 mps 745 mmHg 91%
    19:00 +19°C° 0 mm 1 mps 746 mmHg 92%
    20:00 +18°C° 0 mm 1 mps 746 mmHg 92%
    21:00 +16°C° 0 mm 1 mps 746 mmHg 93%
    22:00 +16°C° 0 mm 1 mps 745 mmHg 91%
    23:00 +15°C° 0 mm 2 mps 745 mmHg 90%

    25 September, Tuesday

    Time Temperature Precipitation Wind Pressure Humidity
    00:00 +15°C° 0 mm 2 mps 744 mmHg 88%
    01:00 +15°C° 0 mm 2 mps 744 mmHg 84%
    02:00 +15°C° 0 mm 2 mps 744 mmHg 81%
    03:00 +14°C° 0 mm 2 mps 743 mmHg 77%
    04:00 +14°C° 0 mm 2 mps 743 mmHg 72%
    05:00 +15°C° 0 mm 2 mps 743 mmHg 67%
    06:00 +15°C° 0 mm 2 mps 743 mmHg 63%
    07:00 +17°C° 0 mm 2 mps 743 mmHg 56%
    08:00 +20°C° 0 mm 2 mps 743 mmHg 50%
    09:00 +24°C° 0 mm 2 mps 742 mmHg 44%
    10:00 +26°C° 0 mm 2 mps 742 mmHg 41%
    11:00 +27°C° 0 mm 2 mps 742 mmHg 38%
    12:00 +29°C° 0 mm 1 mps 741 mmHg 36%
    13:00 +29°C° 0 mm 2 mps 741 mmHg 36%
    14:00 +29°C° 0 mm 2 mps 741 mmHg 37%
    15:00 +29°C° 0 mm 2 mps 741 mmHg 37%
    16:00 +26°C° 0 mm 1 mps 741 mmHg 47%
    17:00 +24°C° 0 mm 1 mps 742 mmHg 57%
    18:00 +21°C° 0 mm 1 mps 742 mmHg 67%
    19:00 +20°C° 0 mm 1 mps 742 mmHg 67%
    20:00 +20°C° 0 mm 1 mps 743 mmHg 67%
    21:00 +18°C° 0 mm 2 mps 743 mmHg 67%
    22:00 +18°C° 0 mm 2 mps 744 mmHg 67%
    23:00 +17°C° 0 mm 2 mps 744 mmHg 66%

    26 September, Wednesday

    Time Temperature Precipitation Wind Pressure Humidity
    00:00 +17°C° 0 mm 2 mps 744 mmHg 66%
    01:00 +17°C° 0 mm 2 mps 744 mmHg 66%
    02:00 +17°C° 0 mm 2 mps 744 mmHg 66%
    03:00 +16°C° 0 mm 2 mps 744 mmHg 67%
    04:00 +16°C° 0 mm 2 mps 744 mmHg 66%
    05:00 +16°C° 0 mm 2 mps 744 mmHg 66%
    06:00 +17°C° 0 mm 2 mps 744 mmHg 66%
    07:00 +19°C° 0 mm 1 mps 744 mmHg 63%
    08:00 +21°C° 0 mm 1 mps 744 mmHg 61%
    09:00 +23°C° 0 mm 1 mps 744 mmHg 58%
    10:00 +24°C° 0.1 mm 1 mps 744 mmHg 57%
    11:00 +25°C° 0.1 mm 1 mps 744 mmHg 57%
    12:00 +26°C° 0.1 mm 2 mps 744 mmHg 56%
    13:00 +26°C° 0.1 mm 2 mps 744 mmHg 59%
    14:00 +26°C° 0.1 mm 2 mps 744 mmHg 62%
    15:00 +26°C° 0.1 mm 2 mps 744 mmHg 65%
    16:00 +24°C° 0.1 mm 2 mps 744 mmHg 74%
    17:00 +22°C° 0.1 mm 1 mps 744 mmHg 82%
    18:00 +21°C° 0.1 mm 1 mps 744 mmHg 91%
    19:00 +20°C° 0 mm 1 mps 745 mmHg 92%
    20:00 +18°C° 0 mm 0 mps 745 mmHg 93%
    21:00 +17°C° 0 mm 0 mps 745 mmHg 95%
    22:00 +19°C° 0.1 mm 1 mps 745 mmHg 94%
    23:00 +19°C° 0.1 mm 1 mps 746 mmHg 93%
    Show more